Regional Weather Roundup
Issued by NWS

Home | Current Version | Previous Version | Text Only | Print | Product List | Glossary Off
Versions: 1 2 3 4 5 6 7 8 9 10 11 12 13 14 15 16 17 18 19 20 21 22 23 24 25 26 27 28 29 30 31 32 33 34 35 36 37 38 39 40 41 42 43 44 45 46 47 48 49 50

000
ASUS45 KBOU 241607
RWRCO

WEATHER ROUNDUP FOR COLORADO
NATIONAL WEATHER SERVICE DENVER/BOULDER CO
1000 AM MDT MON JUL 24 2017

NOTE: "FAIR" INDICATES FEW OR NO CLOUDS BELOW 12000 FEET WITH NO
SIGNIFICANT WEATHER AND/OR OBSTRUCTIONS TO VISIBILITY.

COZ001>005-013-030-031-241700-
...NORTHWEST COLORADO...

CITY           SKY/WX    TMP DP  RH WIND       PRES   REMARKS
CRAIG          FAIR      77  45  32 VRB5      30.22F
HAYDEN         FAIR      73  43  33 E6        30.25S
MEEKER         FAIR      76  46  34 CALM      30.23F
RABBIT EARS PA FAIR      61  41  48 W6        30.55S
STEAMBOAT SPGS FAIR      71  45  38 CALM      30.26F
WALDEN         FAIR      70  41  35 CALM      30.36F
$$

COZ006>008-011-241700-
...WEST CENTRAL VALLEYS...

CITY           SKY/WX    TMP DP  RH WIND       PRES   REMARKS
GRAND JUNCTION FAIR      82  50  32 SE13      30.13S
MONTROSE       PTSUNNY   76  51  41 N8        30.22S
EAGLE          SUNNY     68  45  42 CALM      30.29F
RIFLE          FAIR      75  47  36 NW3       30.19F
DELTA          FAIR      82  46  28 E6        30.18F
NUCLA          NOT AVBL
$$

COZ017>023-064>068-241700-
...SOUTHWEST COLORADO...

CITY           SKY/WX    TMP DP  RH WIND       PRES   REMARKS
DURANGO        FAIR      70  53  54 NW3       30.29S
CORTEZ         FAIR      75  57  53 MISG      30.24F
PAGOSA SPRINGS FAIR      72  48  42 E3        30.36F
TELLURIDE      FAIR      64  47  53 W8        30.47F
WOLF CREEK PAS FAIR      52  45  76 SW6       30.70F
$$

COZ009-010-012-014-032>034-037-058>063-241700-
...CENTRAL COLORADO...

CITY           SKY/WX    TMP DP  RH WIND       PRES   REMARKS
ASPEN          FAIR      73  46  38 N9        30.32F
BUENA VISTA    FAIR      68  44  42 CALM      30.35F
COPPER MTN     FAIR      59  36  41 NW6       30.67F
BERTHOUD PASS  FAIR      50  36  57 NW10G17   30.70S
COTTONWOOD PAS FAIR      68  43  40 SE3       30.49F
GUNNISON       FAIR      65  50  58 E3        30.38F
KREMMLING      FAIR      73  45  35 CALM      30.34F
LEADVILLE      FAIR      64  38  38 CALM      30.48F
MONARCH PASS   FAIR      54  41  62 SW10G18   30.77R
SALIDA         FAIR      71  48  43 N8        30.39F
SUNLIGHT       FAIR      59  41  51 SW5       30.60S
WILKERSON PASS FAIR      59  39  47 N7        30.62S
$$

COZ069>075-241700-
...SAN LUIS VALLEY/SANGRE DE CRISTO MOUNTAINS...

CITY           SKY/WX    TMP DP  RH WIND       PRES   REMARKS
ALAMOSA        FAIR      68  50  52 S6        30.34F
DEL NORTE      FAIR      67  48  49 E5        30.38F
LA VETA PASS   NOT AVBL
SAGUACHE         N/A    N/A N/A N/A MISG        N/A
$$

COZ035-036-038>040-241700-
...NORTHERN COLORADO FRONT RANGE...

CITY           SKY/WX    TMP DP  RH WIND       PRES   REMARKS
DENVER INTL AP FAIR      85  48  27 W8        30.09F
DMNS CITY PARK   N/A     85  48  27 W3        30.08F
AURORA         MOSUNNY   82  49  30 SW6       30.12S
FRONT RANGE AP FAIR      86  46  25 W6        30.11S
ERIE MUNI ARPT FAIR      81  46  29 CALM      30.08F
BOULDER MUN AP FAIR      79  46  31 CALM      30.08F
CENTENNIAL     FAIR      82  44  26 SW3       30.13F
BROOMFIELD     FAIR      79  46  31 NW3       30.12F
FORT COLLINS   FAIR      80  53  39 N6        30.07F
LONGMONT       FAIR      84  50  30 NE6       30.08F
$$

COZ041-046-047-076>085-087-088-241700-
...PIKES PEAK/PALMER DIVIDE AND SOUTHERN FOOTHILLS...

CITY           SKY/WX    TMP DP  RH WIND       PRES   REMARKS
COLO. SPRINGS  FAIR      75  56  51 E5        30.20F
A. F. ACADEMY  FAIR      74  55  50 S5        30.20F
SCHRIEVER AFB  FAIR      73  53  49 SE8       30.21S
CHEYENNE MTN   FAIR      71  56  59 NE6       30.19F
ELLICOTT       FAIR     N/A N/A N/A S9        30.18F
FALCON           N/A     73  55  53 SE6       30.25F
FORT CARSON    FAIR      72  57  57 CALM      30.17F
LIMON          FAIR      79  60  52 S16G22    30.14F
MONUMENT HILL  FAIR      77  46  33 SW6       30.25S
CANON CITY     SUNNY     82  55  39 W10       30.13F
WALSENBURG     FAIR      86  46  25 W9        30.19F
TRINIDAD       FAIR      81  53  37 VRB5      30.18F
$$

COZ042>045-048>051-090-091-241700-
...NORTHEAST COLORADO...

CITY           SKY/WX    TMP DP  RH WIND       PRES   REMARKS
GREELEY ARPT   FAIR      77  59  53 VRB5      30.06F
AKRON          FAIR      86  56  35 S14       30.07F
BURLINGTON     FAIR      84  63  49 S18       30.09F
WRAY           NOT AVBL
YUMA           NOT AVBL
STERLING       FAIR      86  63  45 SW9       30.01S
HOLYOKE        FAIR      86  63  45 S17G23    30.02F
FORT MORGAN    FAIR      87  53  30 S10       30.05F
$$

COZ086-089-092>099-241700-
...SOUTHEAST COLORADO...

CITY           SKY/WX    TMP DP  RH WIND       PRES   REMARKS
PUEBLO         FAIR      79  57  46 CALM      30.09F
LA JUNTA       FAIR      83  62  49 S6        30.07F
LAMAR          FAIR      88  62  41 S12       30.04F
SPRINGFIELD      N/A     83  61  47 S9        30.11F
$$



USA.gov is the U.S. government's official web portal to all federal, state and local government web resources and services.